Other Public Products
Issued by NWS Grand Forks, ND

Home | Current Version | Previous Version | Text Only | Print | Product List | Glossary Off
Versions: 1 2 3 4 5 6 7 8 9 10 11 12 13 14 15 16 17 18 19 20 21 22 23 24 25 26 27 28 29 30 31 32 33 34 35 36 37 38 39 40 41 42 43 44 45 46 47 48 49 50

000
FPUS83 KFGF 142031
OPUFGF
PRAIRIE TO PINES WEATHER ROUNDUP
NATIONAL WEATHER SERVICE EASTERN NORTH DAKOTA/GRAND FORKS ND
200 PM CST THU DEC 14 2017

 **SATELLITE DATA USED TO AUGMENT SKY COVER AT AUTOMATED STATIONS**
 *****  WEATHER ACROSS EASTERN NORTH DAKOTA  *****

CITY           SKY/WX    TMP DP  RH WIND       PRES   REMARKS
GRAND FORKS    PTSUNNY   22  16  78 N10       30.06F WCI  11
GRND FORKS AFB FLURRIES  23  16  74 N7        30.05F WCI  15
GRND FORKS NWS   N/A     23 N/A N/A N7          N/A  WCI  15
BUXTON           N/A     23  20  88 NW10        N/A  WCI  12
DEVILS LAKE    FLURRIES  28  23  81 NW18      30.03F WCI  15
FARGO          CLOUDY    24  19  81 N15       30.08R WCI  11
WAHPETON ARPT  CLOUDY    27  19  74 NW9       30.07F WCI  17
$$

 *****  WEATHER ACROSS CENTRAL AND WESTERN NORTH DAKOTA  *****

CITY           SKY/WX    TMP DP  RH WIND       PRES   REMARKS
JAMESTOWN      CLOUDY    28  24  85 NW12      30.05F WCI  18
BISMARCK       LGT SNOW  33  27  78 NW15G25   30.12F WCI  23
MINOT          LGT SNOW  34  27  75 W23G29    30.08F WCI  22
MINOT AFB      FLURRIES  34  27  75 W18G24    30.05F WCI  23
GARRISON         N/A     34  24  67 NW16      30.09F WCI  24
WILLISTON      CLOUDY    37  24  59 NW16      30.16F
DICKINSON      CLOUDY    33  26  75 NW18      30.13F WCI  22
HETTINGER      CLOUDY    35  21  56 NW22      30.17F WCI  23
$$

 *****  OTHER OBSERVATIONS NORTHEAST NORTH DAKOTA  *****

CITY           SKY/WX    TMP DP  RH WIND       PRES   REMARKS
WALHALLA       FAIR      21  21 100 N7        30.04F WCI  13
LANGDON        CLOUDY    25  25 100 W10G16    29.99F WCI  15
CAVALIER       CLOUDY    19  16  86 NW10      30.05S WCI   8
GRAFTON        MOCLDY    19  16  86 N8        30.08S WCI   9
CANDO          CLOUDY    28  27  93 NW13G18   30.04F WCI  18
FORT TOTTEN      N/A     29  22  76 NW7       29.95S WCI  22
ROLLA          MIX PCPN  27  25  93 NW15G21   30.01S WCI  15
RUGBY          CLOUDY    30  23  74 NW15      30.04S WCI  19
 ***** THE ABOVE OBSERVATIONS ARE NON NWS ARE NOT QUALITY
        CONTROLLED AND MAY MIS-REPORT RAIN FOR SNOW...
$$

 *****  OTHER OBSERVATIONS SOUTHEAST NORTH DAKOTA *****

CITY           SKY/WX    TMP DP  RH WIND       PRES   REMARKS
COOPERSTOWN      N/A     25  21  86 NW9       30.04F WCI  15
VALLEY CITY    CLOUDY    27  25  93 NW12G18   30.06F WCI  16
OAKES            N/A     27  27 100 NW12      30.08S WCI  16
GWINNER          N/A     27  23  86 NW13G18   30.07F WCI  16
SHEYENNE NWR     N/A     26  24  92 N12       29.95S WCI  16
BUFFALO          N/A     25  18  77 NW14        N/A  WCI  13
WYNDMERE       NOT AVBL
 ***** THE ABOVE OBSERVATIONS ARE NON NWS ARE NOT QUALITY
       CONTROLLED AND MAY MIS-REPORT RAIN FOR SNOW...
$$

  *****  WEATHER ACROSS NORTHERN MINNESOTA  *****

CITY           SKY/WX    TMP DP  RH WIND       PRES   REMARKS
FLAG ISLAND    FLURRIES  12   7  79 W13       29.96S WCI  -3
WARROAD        LGT SNOW  12   9  85 NW5       29.99S WCI   4
ROSEAU         LGT SNOW  14   9  79 W8        30.00S WCI   3
HALLOCK        FLURRIES  18  12  79 NW7       30.04F WCI   8
THF RVR FALLS  LGT SNOW  16  11  80 NW17      30.03F WCI   0
HALSTAD        NOT AVBL
FOSSTON        LGT SNOW  16  12  86 NW9       30.01F WCI   4
BAUDETTE       LGT SNOW  12   6  77 NW12      29.96S WCI  -2
WASKISH        FLURRIES  14   9  79 W9        29.97S WCI   2
CROOKSTON      CLOUDY    18  16  93 N15       30.06F WCI   3
$$
  *****  WEATHER ACROSS CENTRAL AND WEST MINNESOTA  *****

CITY           SKY/WX    TMP DP  RH WIND       PRES   REMARKS
BEMIDJI        FLURRIES  16  10  79 NW12      29.96F WCI   3
PARK RAPIDS    FLURRIES  19  13  77 NW16      29.96F WCI   4
WADENA         LGT SNOW  19  14  79 NW17G23   29.99S WCI   4
DETROIT LAKES  CLOUDY    21  18  86 NW17G23   30.02S WCI   7
MOORHEAD       CLOUDY    21  18  86 CALM      30.08S
FERGUS FALLS   CLOUDY    21  18  86 N15G21    30.07S WCI   8
ELBOW LAKE     CLOUDY    22  19  85 NW15      30.04S WCI   9
MORRIS MN      CLOUDY    25  19  80 NW14G20   30.04R WCI  13
STAPLES        FLURRIES  19  14  79 NW14      29.98S WCI   6
WHEATON        CLOUDY    25  19  80 NW13      30.08S WCI  13
$$
  *****  WEATHER ELSEWHERE ACROSS MINNESOTA  *****

CITY           SKY/WX    TMP DP  RH WIND       PRES   REMARKS
DULUTH         FLURRIES  16  10  77 NW9       29.91F WCI   4
INTRNTL FALLS  CLOUDY    14   7  73 W8        29.93F HAZE    WCI   3
ELY            FLURRIES  16   9  73 W6        29.89S WCI   7
CLOQUET        FLURRIES  18  10  73 W9        29.92F WCI   6
BRAINERD       LGT SNOW  20  13  74 NW8       29.97F WCI  10
HIBBING        CLOUDY    15   8  73 W8        29.92F WCI   4
ALEXANDRIA     CLOUDY    23  17  78 NW13      30.00F WCI  11
SAINT CLOUD    CLOUDY    21  15  78 NW9       30.00F WCI  11
MINNEAPOLIS    FLURRIES  22  17  81 SW7       30.02F WCI  13
$$

  *****  WEATHER ACROSS SOUTH DAKOTA  *****

CITY           SKY/WX    TMP DP  RH WIND       PRES   REMARKS
SIOUX FALLS    FLURRIES  35  28  75 NW13      30.03S
BROOKINGS      MIX PCPN  30  28  93 NW9       30.02R WCI  22
WATERTOWN      CLOUDY    27  26  96 NE15      30.02R FOG     WCI  15
HURON          CLOUDY    35  31  85 N15       30.06S
SISSETON         N/A     26  24  92 N8        30.05F WCI  18
ABERDEEN       CLOUDY    29  27  92 N14       30.10R WCI  18
MITCHELL       CLOUDY    36  30  79 NW14      30.07S
PIERRE         CLOUDY    34  31  88 N15       30.13R WCI  24
MOBRIDGE       CLOUDY    36  27  69 N16       30.10S
RAPID CITY     CLOUDY    34  23  64 NW30G41   30.18F WCI  20
$$

  *****  SOME WEATHER IN NEARBY STATES *****

CITY           SKY/WX    TMP DP  RH WIND       PRES   REMARKS
GLASGOW MT     FAIR      38  23  55 W15       30.21F
GREAT FALLS MT FAIR      42  21  43 SW23G29   30.20F
CHEYENNE WY    LGT SNOW  26  22  84 N17       30.19S FOG     WCI  13
SCOTTSBLUFF NE CLOUDY    35  22  58 N28G33    30.22S WCI  22
OMAHA NE       CLOUDY    41  25  53 NW10      30.05F
DES MOINES IA  CLOUDY    32  18  56 VRB3      30.06S
DAVENPORT IA   CLOUDY    27  15  61 SW7       30.08S WCI  19
CHICAGO IL     PTSUNNY   26   9  48 NW6       30.04S WCI  19
EAU CLAIRE WI  CLOUDY    23  14  68 W9        29.99F WCI  13
LA CROSSE WI   CLOUDY    26  13  57 S8        30.04F WCI  18
$$

  *****  SOME NATIONAL WEATHER *****

CITY           SKY/WX    TMP DP  RH WIND       PRES   REMARKS
LA GUARDIA NY  FAIR      32  14  47 NW20G29   29.86R WCI  20
RALEIGH NC     FAIR      56  24  29 VRB6      29.86R
ATLANTA GA     PTSUNNY   57  33  40 W10       29.91S
NEW ORLEANS LA CLOUDY    63  49  60 S5        29.98F
OKLAHOMA CITY  FAIR      49  26  41 N14       30.12F
ALBUQUERQUE NM PTSUNNY   45  13  27 E21       30.13F
SALT LAKE CITY FAIR      38  28  67 CALM      30.43F
LOS ANGELES CA FAIR      68  48  48 W8        30.02S
BOISE ID       CLOUDY    27  22  81 SE7       30.56F WCI  19
SEATTLE WA     PTSUNNY   48  36  63 VRB3      30.31F
$$

*** WEATHER ACROSS MANITOBA...SASKATCHEWAN AND ONTARIO ***
                ***ONTARIO***

CITY           SKY/WX    TMP DP  RH WIND       PRES   REMARKS
GERALDTON      FLURRIES   3  -4  72 W3        29.82F
THUNDER BAY    CLOUDY    16   9  73 SW6       29.92F WCI   7
SIOUX LOOKOUT  CLOUDY    10   5  79 W5        29.85F WCI   2
TORONTO        MOSUNNY   19   7  58 W22G29    29.93R WCI   3
BIG TROUT LK   FLURRIES  -2  -8  78 N7        29.86S WCI -16
PICKLE LAKE    FLURRIES   5   1  85 W6        29.80S WCI  -6
DRYDEN         FLURRIES  10   7  85 W9        29.87F WCI  -2
KENORA         LGT SNOW  10   7  85 NW9       29.92S WCI  -2
$$
                *** MANITOBA***

CITY           SKY/WX    TMP DP  RH WIND       PRES   REMARKS
BRANDON        FLURRIES  27  23  86 NW12      30.02F WCI  16
DAUPHIN        CLOUDY    23  19  86 N5        30.04F WCI  17
ISLAND LAKE    LGT SNOW   5   0  78 NW15      29.96  DRFTSNOWWCI -13
PILOT MOUND      N/A     23  21  93 W5          N/A  WCI  17
THE PAS        FLURRIES  14   7  73 N8        30.08F WCI   3
THOMPSON       MOCLDY    -2  -8  78 NW9       30.09S WCI -18
WINNIPEG       FLURRIES  16  12  86 NW9       30.04S WCI   4
LYNN LAKE      CLOUDY     1   0  92 NW3       30.07F
CHURCHILL      FLURRIES  -2  -6  84 N20       30.05S WCI -25
GILLAM         CLOUDY    -8 -15  71 NW13      30.06S WCI -28
$$
                ***SASKATCHEWAN***

CITY           SKY/WX    TMP DP  RH WIND       PRES   REMARKS
ESTEVAN        CLOUDY    32  25  74 W17       30.09F WCI  21
KINDERSLEY     MOSUNNY   32  27  80 W8        30.13F WCI  25
LLOYDMINSTER   MOSUNNY   30  25  80 SW10      30.06F WCI  21
PRINCE ALBERT  PTSUNNY   27  19  74 N8        30.10  WCI  18
REGINA         CLOUDY    30  25  80 NW15      30.10F WCI  19
YORKTON        CLOUDY    27  23  86 N7        30.04F WC



USA.gov is the U.S. government's official web portal to all federal, state and local government web resources and services.